Location: Gradaro
(45.0833°N, 10.8833°E)
Time: 06:01:12
(UTC+00:00)

Meteor 2-6 Rocket - Pass Details

Date: 29 November 2020
Orbit: 806 x 914 km, 81.3° (Epoch: 27 January)

Event Time Altitude Azimuth Distance (km) Brightness Sun altitude
Rises 04:30:34 0° 351° (N) 3,334 7.1 -21.0°
Reaches altitude 10° 04:32:59 10° 355° (N) 2,398 6.4 -20.6°
Maximum altitude 04:38:21 66° 77° (ENE) 888 4.5 -19.6°
Drops below altitude 10° 04:43:45 10° 160° (SSE) 2,410 7.0 -18.7°
Sets 04:46:11 0° 163° (SSE) 3,351 7.7 -18.3°
